Regional Weather Roundup
Issued by NWS

Home | Current Version | Previous Version | Graphics & Text | Print | Product List | Glossary On
Versions: 1 2 3 4 5 6 7 8 9 10 11 12 13 14 15 16 17 18 19 20 21 22 23 24 25 26 27 28 29 30 31 32 33 34 35 36 37 38 39 40 41 42 43 44 45 46 47 48 49 50
000
ASUS43 KDMX 301507
RWRIA

WEATHER ROUNDUP FOR IOWA
NATIONAL WEATHER SERVICE DES MOINES IA
900 AM CST FRI JAN 30 2015

NOTE: "FAIR" INDICATES FEW OR NO CLOUDS BELOW 12,000 FEET WITH NO
SIGNIFICANT WEATHER AND/OR OBSTRUCTIONS TO VISIBILITY.

* - THESE STATIONS ARE NOT NWS STATIONS...THUS NOT UNDER NWS
QUALITY CONTROL.  THEY ALSO DO NOT REPORT WEATHER SUCH
AS PRECIPITATION OR FOG.

IAZ001>003-012>014-020>022-031>034-043>046-301600-
   NORTHWEST IOWA

CITY           SKY/WX    TMP DP  RH WIND       PRES   REMARKS
CARROLL *      SUNNY     18  14  86 CALM      30.53S
CHEROKEE *     MOSUNNY   18  16  93 S5        30.52S WCI  11
DENISON *      SUNNY     18  16  93 CALM      30.51S
LE MARS *      CLOUDY    19  18  93 S9        30.51F WCI   9
ORANGE CITY *  MOSUNNY   21  18  86 S7        30.48S WCI  13
SHELDON *      CLOUDY    18  16  93 S12       30.47F WCI   5
SIOUX CITY     PTSUNNY   21  17  84 E7        30.52S WCI  12
SPENCER        SUNNY     17  13  84 S9        30.50R WCI   6
STORM LAKE *   SUNNY     18  14  86 SE9       30.50F WCI   6
$$

IAZ055>058-069>071-079>083-090>094-301600-
   SOUTHWEST IOWA

CITY           SKY/WX    TMP DP  RH WIND       PRES   REMARKS
ATLANTIC *     SUNNY     19  16  86 CALM      30.54R
AUDUBON *      SUNNY     18  16  93 SE3       30.52R
CLARINDA *     SUNNY     19  19 100 CALM      30.57S
COUNCIL BLFS * SUNNY     19  18  93 SE6       30.52S WCI  11
CRESTON *      SUNNY     19  18  93 E5        30.53R WCI  13
HARLAN  *      SUNNY     18  18 100 S5        30.57R WCI  11
LAMONI         SUNNY     20  16  84 E6        30.54R WCI  12
RED OAK *      SUNNY     19  18  93 CALM      30.56R
SHENANDOAH *   SUNNY     19  18  93 CALM      30.57R
$$

IAZ047>049-059>061-072>074-084-301600-
   CENTRAL IOWA

CITY           SKY/WX    TMP DP  RH WIND       PRES   REMARKS
AMES           SUNNY     19  12  74 CALM      30.55R
ANKENY *       SUNNY     18  14  86 CALM      30.56R
CHARITON *     SUNNY     19  16  86 N5        30.54S WCI  13
DES MOINES     MOSUNNY   21  13  71 NE3       30.56R
GRINNELL*      SUNNY     18  12  79 CALM      30.54R
KNOXVILLE *    SUNNY     19  12  73 NE3       30.54R
MARSHALLTOWN   SUNNY     17   8  67 NE3       30.53S
PELLA *        SUNNY     21  16  79 NE3       30.56R
PERRY *          N/A     19  16  86 CALM      30.55R
$$

IAZ004>006-015-016-023>025-035-036-301600-
   NORTH CENTRAL IOWA

CITY           SKY/WX    TMP DP  RH WIND       PRES   REMARKS
ALGONA *       SUNNY     16  12  86 S7        30.52S WCI   6
CLARION *      SUNNY     16  12  86 CALM      30.53R
ESTHERVILLE    SUNNY     14  11  87 S7        30.49S WCI   4
FORT DODGE *   SUNNY     16  10  79 CALM      30.53S
MASON CITY     SUNNY     15  11  83 S3        30.52F
FOREST CITY *  SUNNY     18  12  79 S5        30.51R WCI  11
IOWA FALLS *     N/A     18  12  79 CALM      30.53S
$$

IAZ007>011-017>019-026>030-037>042-050>054-066-301600-
   NORTHEAST IOWA

CITY           SKY/WX    TMP DP  RH WIND       PRES   REMARKS
CEDAR RAPIDS   SUNNY     17  10  74 N5        30.55R WCI  10
CHARLES CITY * SUNNY     14   7  73 CALM      30.53S
CLINTON *      SUNNY     18  10  73 N6        30.57R WCI   9
DECORAH *      SUNNY     12   5  73 CALM      30.51S
DUBUQUE        MOSUNNY   15   8  73 N6        30.52R WCI   6
MONTICELLO *   SUNNY     18  10  73 N6        30.56R WCI   9
OELWEIN *      SUNNY     14   9  79 NE6       30.53S WCI   5
WATERLOO       SUNNY     16   9  74 NE3       30.55R
$$

IAZ064-065-067-068-078-301600-
   EAST CENTRAL IOWA

CITY           SKY/WX    TMP DP  RH WIND       PRES   REMARKS
DAVENPORT      SUNNY     19  11  70 N5        30.55R WCI  12
IOWA CITY      SUNNY     20  11  68 N7        30.58R WCI  11
MT. PLEASANT * SUNNY     23  16  74 N8        30.56R WCI  14
MUSCATINE *    SUNNY     21  14  73 N3        30.58R
QUAD CITIES    SUNNY     22  11  62 NE3       30.56R
$$

IAZ062-063-075>077-085>089-095>099-301600-
   SOUTHEAST IOWA

CITY           SKY/WX    TMP DP  RH WIND       PRES   REMARKS
BURLINGTON     SUNNY     24  15  68 NE9       30.55R WCI  14
FAIRFIELD *    SUNNY     21  14  73 N7        30.56R WCI  13
FORT MADISON * SUNNY     23  18  80 N7        30.55S WCI  15
KEOKUK *       SUNNY     25  18  74 N7        30.55R WCI  17
OSKALOOSA *      N/A     19  14  79 NE5       30.55S WCI  13
CENTERVILLE *  SUNNY     21  16  79 N6        30.55S WCI  14
OTTUMWA        SUNNY     21  15  78 N6        30.53F WCI  13
WASHINGTON *   SUNNY     21  18  86 N8        30.55S WCI  12
$$

ABBREVIATIONS USED IN REMARKS
   TC - TEMPERATURES IN CELSIUS
  WCI - WIND CHILL INDEX
   HX - HEAT INDEX
  VSB - VISIBILITY
$$




USA.gov is the U.S. government's official web portal to all federal, state and local government web resources and services.